NK0V Weather Reports


Display with metric or nautical units.
time (UTC)temp
F
wind
direction
speed
MPH
gust
MPH
rain 1hr
in
rain 24hr
in
rain mn
in
humidity
%
barometer
mb
20260510075558 36 0 0.0 2.0 0.00 0.00 0.00 64 1017.9
20260510075058 36 0 0.0 2.0 0.00 0.00 0.00 62 1017.9
20260510074600 36 0 1.0 2.0 0.00 0.00 0.00 61 1017.9
20260510074056 36 242 0.0 2.0 0.00 0.00 0.00 61 1017.9
20260510073556 36 0 0.0 2.0 0.00 0.00 0.00 60 1017.8
20260510073057 37 0 0.0 2.0 0.00 0.00 0.00 60 1017.9
20260510072556 37 0 0.0 1.0 0.00 0.00 0.00 60 1017.9
20260510072056 37 0 0.0 1.0 0.00 0.00 0.00 59 1017.8
20260510071600 38 0 0.0 2.0 0.00 0.00 0.00 59 1017.8
20260510071055 38 0 0.0 2.0 0.00 0.00 0.00 58 1017.8
20260510070555 38 242 1.0 3.0 0.00 0.00 0.00 58 1017.9
20260510070058 38 242 1.0 3.0 0.00 0.00 0.00 58 1017.8
20260510065558 38 242 1.0 3.0 0.00 0.00 0.00 58 1017.8
20260510065058 39 242 0.0 3.0 0.00 0.00 0.00 58 1017.8
20260510064604 39 242 1.0 3.0 0.00 0.00 0.00 58 1017.7
20260510064058 39 242 1.0 3.0 0.00 0.00 0.00 58 1017.9
20260510063556 39 5 0.0 1.0 0.00 0.00 0.00 57 1017.7
20260510063057 39 5 0.0 0.0 0.00 0.00 0.00 57 1017.6
20260510062557 39 0 0.0 0.0 0.00 0.00 0.00 57 1017.6
20260510062100 40 0 0.0 0.0 0.00 0.00 0.00 57 1017.6
20260510061557 40 0 0.0 0.0 0.00 0.00 0.00 57 1017.6
20260510061056 40 0 0.0 0.0 0.00 0.00 0.00 56 1017.6
20260510060556 40 0 0.0 0.0 0.00 0.00 0.00 55 1017.6
20260510060057 40 0 0.0 0.0 0.00 0.00 0.00 55 1017.5
20260510055555 41 0 0.0 0.0 0.00 0.00 0.00 55 1017.5
20260510055058 41 0 0.0 1.0 0.00 0.00 0.00 55 1017.5
20260510054555 41 0 0.0 1.0 0.00 0.00 0.00 55 1017.4
20260510054057 41 0 0.0 1.0 0.00 0.00 0.00 54 1017.3
20260510053558 41 5 0.0 1.0 0.00 0.00 0.00 54 1017.4
20260510053056 41 5 0.0 1.0 0.00 0.00 0.00 54 1017.3
20260510052600 42 0 0.0 1.0 0.00 0.00 0.00 54 1017.3
20260510052100 42 0 0.0 0.0 0.00 0.00 0.00 54 1017.2
20260510051558 42 0 0.0 0.0 0.00 0.00 0.00 54 1017.2
20260510051056 42 0 0.0 0.0 0.00 0.00 0.00 53 1017.2
20260510050554 42 0 0.0 0.0 0.00 0.00 0.00 52 1017.2
20260510050056 42 0 0.0 0.0 0.00 0.00 0.00 52 1017.1
20260510045555 42 0 0.0 0.0 0.00 0.00 0.00 52 1017.1
20260510045056 43 0 0.0 0.0 0.00 0.00 0.00 52 1017.1
20260510044556 43 0 0.0 0.0 0.00 0.00 0.00 51 1017.0
20260510044054 43 0 0.0 1.0 0.00 0.00 0.00 51 1017.0
20260510043558 43 0 0.0 1.0 0.00 0.00 0.00 50 1017.0
20260510043058 43 0 0.0 1.0 0.00 0.00 0.00 50 1017.0
20260510042557 44 5 0.0 1.0 0.00 0.00 0.00 49 1017.0
20260510042058 44 0 0.0 1.0 0.00 0.00 0.00 49 1017.0
20260510041559 44 0 0.0 2.0 0.00 0.00 0.00 49 1017.0
20260510041058 44 5 0.0 2.0 0.00 0.00 0.00 49 1017.0
20260510040558 45 5 0.0 1.0 0.00 0.00 0.00 49 1017.0
20260510040101 45 0 0.0 1.0 0.00 0.00 0.00 48 1017.0
20260510035555 45 0 0.0 1.0 0.00 0.00 0.00 48 1016.9
20260510035055 45 0 0.0 1.0 0.00 0.00 0.00 47 1016.8
20260510034605 46 0 0.0 2.0 0.00 0.00 0.00 47 1016.8
20260510034057 46 0 0.0 2.0 0.00 0.00 0.00 46 1016.8
20260510033555 46 5 0.0 3.0 0.00 0.00 0.00 45 1016.8
20260510033113 47 5 1.0 3.0 0.00 0.00 0.00 44 1016.8
20260510032554 47 5 1.0 3.0 0.00 0.00 0.00 44 1016.7
20260510032101 47 5 1.0 3.0 0.00 0.00 0.00 43 1016.7
20260510031601 48 0 1.0 3.0 0.00 0.00 0.00 43 1016.7
20260510031055 48 16 1.0 3.0 0.00 0.00 0.00 43 1016.6
20260510030558 48 5 1.0 4.0 0.00 0.00 0.00 43 1016.6
20260510030055 49 14 2.0 4.0 0.00 0.00 0.00 42 1016.5
20260510025555 49 12 1.0 3.0 0.00 0.00 0.00 42 1016.4
20260510025055 49 5 1.0 4.0 0.00 0.00 0.00 41 1016.3
20260510024601 50 0 1.0 4.0 0.00 0.00 0.00 40 1016.3
20260510024054 50 360 1.0 5.0 0.00 0.00 0.00 40 1016.2
20260510023554 50 0 2.0 5.0 0.00 0.00 0.00 40 1016.2
20260510023056 51 346 1.0 5.0 0.00 0.00 0.00 39 1016.1
20260510022555 51 355 2.0 9.0 0.00 0.00 0.00 39 1016.0
20260510022054 51 327 1.0 9.0 0.00 0.00 0.00 39 1016.0
20260510021600 51 306 3.0 8.0 0.00 0.00 0.00 38 1015.9
20260510021055 52 333 2.0 7.0 0.00 0.00 0.00 38 1015.8
20260510020554 52 323 2.0 7.0 0.00 0.00 0.00 38 1015.7
20260510015555 53 324 2.0 8.0 0.00 0.00 0.00 37 1015.7
20260510015058 53 298 2.0 8.0 0.00 0.00 0.00 37 1015.6
20260510014558 53 317 3.0 8.0 0.00 0.00 0.00 37 1015.5
20260510014058 53 310 3.0 9.0 0.00 0.00 0.00 36 1015.4
20260510013555 54 317 3.0 10.0 0.00 0.00 0.00 37 1015.3
20260510013100 54 305 4.0 10.0 0.00 0.00 0.00 36 1015.3
20260510012559 54 323 4.0 12.0 0.00 0.00 0.00 36 1015.2
20260510012055 54 289 3.0 13.0 0.00 0.00 0.00 36 1015.2
20260510011558 54 280 4.0 13.0 0.00 0.00 0.00 35 1015.1
20260510011055 55 304 4.0 11.0 0.00 0.00 0.00 36 1015.0
20260510010554 55 326 4.0 11.0 0.00 0.00 0.00 36 1015.0
20260510010057 55 336 4.0 12.0 0.00 0.00 0.00 36 1015.0
20260510005555 55 311 4.0 12.0 0.00 0.00 0.00 35 1014.9
20260510005058 55 321 6.0 12.0 0.00 0.00 0.00 35 1014.9
20260510004602 55 317 4.0 13.0 0.00 0.00 0.00 35 1014.9
20260510004100 56 281 6.0 13.0 0.00 0.00 0.00 35 1014.8
20260510003558 56 314 5.0 13.0 0.00 0.00 0.00 35 1014.7
20260510003121 56 296 6.0 14.0 0.00 0.00 0.00 35 1014.6
20260510002557 56 300 6.0 14.0 0.00 0.00 0.00 35 1014.6
20260510002055 57 309 5.0 13.0 0.00 0.00 0.00 35 1014.5
20260510001605 57 313 5.0 13.0 0.00 0.00 0.00 34 1014.4
20260510001055 57 285 5.0 16.0 0.00 0.00 0.00 34 1014.4
20260510000558 57 331 6.0 16.0 0.00 0.00 0.00 34 1014.3
20260510000108 57 302 5.0 14.0 0.00 0.00 0.00 35 1014.3
20260509235554 58 309 5.0 13.0 0.00 0.00 0.00 35 1014.3
20260509235054 58 331 6.0 18.0 0.00 0.00 0.00 35 1014.3
20260509234607 58 301 8.0 18.0 0.00 0.00 0.00 34 1014.2
20260509234055 58 271 6.0 14.0 0.00 0.00 0.00 35 1014.1
20260509233554 58 27 5.0 15.0 0.00 0.00 0.00 35 1014.0
20260509233058 58 287 7.0 15.0 0.00 0.00 0.00 33 1014.0
20260509232557 58 329 6.0 15.0 0.00 0.00 0.00 34 1014.0
20260509232058 58 306 6.0 15.0 0.00 0.00 0.00 34 1014.0
20260509231558 58 33 5.0 15.0 0.00 0.00 0.00 35 1014.0
20260509231056 58 323 5.0 18.0 0.00 0.00 0.00 36 1013.9
20260509230557 58 317 6.0 18.0 0.00 0.00 0.00 35 1013.8
20260509230108 58 67 5.0 16.0 0.00 0.00 0.00 36 1013.8
20260509225554 58 336 7.0 15.0 0.00 0.00 0.00 35 1013.7
20260509225057 58 314 8.0 16.0 0.00 0.00 0.00 35 1013.6
20260509224555 58 10 9.0 16.0 0.00 0.00 0.00 35 1013.4
20260509224055 58 341 10.0 17.0 0.00 0.00 0.00 34 1013.5
20260509223556 58 313 7.0 17.0 0.00 0.00 0.00 36 1013.6
20260509223058 58 288 7.0 14.0 0.00 0.00 0.00 36 1013.5
20260509222555 58 329 5.0 16.0 0.00 0.00 0.00 35 1013.5
20260509222055 58 329 7.0 19.0 0.00 0.00 0.00 35 1013.5
20260509221556 58 29 10.0 19.0 0.00 0.00 0.00 35 1013.4
20260509221057 59 5 10.0 18.0 0.00 0.00 0.00 36 1013.5
20260509220555 59 43 8.0 18.0 0.00 0.00 0.00 34 1013.4
20260509220056 59 324 9.0 18.0 0.00 0.00 0.00 35 1013.4
20260509215555 59 5 6.0 15.0 0.00 0.00 0.00 36 1013.3
20260509215056 59 319 7.0 15.0 0.00 0.00 0.00 34 1013.4
20260509214557 59 281 6.0 16.0 0.00 0.00 0.00 37 1013.3
20260509214055 59 327 7.0 18.0 0.00 0.00 0.00 36 1013.2
20260509213557 59 360 8.0 18.0 0.00 0.00 0.00 36 1013.3
20260509213100 59 46 6.0 17.0 0.00 0.00 0.00 35 1013.2
20260509212557 59 5 8.0 17.0 0.00 0.00 0.00 36 1013.2
20260509212055 59 48 8.0 17.0 0.00 0.00 0.00 35 1013.2
20260509211604 59 279 8.0 19.0 0.00 0.00 0.00 36 1013.2
20260509211055 59 339 9.0 19.0 0.00 0.00 0.00 35 1013.1
20260509210558 59 322 8.0 23.0 0.00 0.00 0.00 37 1013.1
20260509210101 59 319 9.0 23.0 0.00 0.00 0.00 36 1013.2
20260509205557 59 340 9.0 18.0 0.00 0.00 0.00 36 1013.1
20260509205055 59 5 8.0 19.0 0.00 0.00 0.00 35 1013.0
20260509204557 59 345 9.0 19.0 0.00 0.00 0.00 36 1013.1
20260509204058 59 318 7.0 16.0 0.00 0.00 0.00 37 1013.0
20260509203555 59 30 8.0 19.0 0.00 0.00 0.00 35 1013.0
20260509203102 59 42 10.0 21.0 0.00 0.00 0.00 35 1013.1
20260509202558 59 5 8.0 21.0 0.00 0.00 0.00 35 1013.0
20260509202056 59 327 10.0 20.0 0.00 0.00 0.00 36 1012.9
20260509201558 59 5 12.0 20.0 0.00 0.00 0.00 35 1012.8
20260509201056 59 29 8.0 17.0 0.00 0.00 0.00 35 1012.9
20260509200555 59 321 7.0 20.0 0.00 0.00 0.00 34 1012.9
20260509195558 59 346 10.0 20.0 0.00 0.00 0.00 35 1012.8
20260509195326 59 311 8.0 20.0 0.00 0.00 0.00 37 1012.6